Location: Carimao
(10.4546°N, 66.7419°W)
Time: 07:19:57
(UTC+00:00)

Centaur D AC-29 - Pass Details

Date: 19 May 2024
Orbit: 611 x 36210 km, 26.4° (Epoch: 21 June)

Event Time Altitude Azimuth Distance (km) Brightness Sun altitude
Rises 23:01:55 0° 251° (WSW) 4,077 6.1 -5.3°
Reaches altitude 10° 23:05:13 10° 255° (WSW) 2,375 5.0 -6.0°
Maximum altitude 23:09:19 57° 336° (NNW) 712 1.7 -7.0°
Drops below altitude 10° 23:13:13 10° 57° (ENE) 2,247 3.6 -7.8°
Sets 23:16:13 0° 61° (ENE) 3,809 4.7 -8.5°
